Quantico, VA

4:34 AM EST on November 18, 2019 (GMT -0500)
Quantico Marine Corps Air Facility

Weather History for KNYG - September, 2019

Change the Weather History Date:

Thursday, September 19, 2019

  Actual Average Record
Temperature  
Mean Temperature 66 °F -  
Max Temperature 73 °F 74 °F 88 °F (2018)
Min Temperature 57 °F 57 °F 50 °F (1999)
Cooling Degree Days 1    
Growing Degree Days 16 (Base 50)    
Moisture  
Dew Point 50 °F    
Average Humidity 57    
Maximum Humidity 84    
Minimum Humidity 34    
Precipitation  
Precipitation 0.00 in - - ()
Sea Level Pressure  
Sea Level Pressure 30.32 in    
Wind  
Wind Speed 7 mph (East)    
Max Wind Speed 12 mph    
Max Gust Speed -    
Visibility 10 miles    
Events      
Averages and records for this station are not official NWS values.
T = Trace of Precipitation, MM = Missing Value Source: NWS Daily Summary

Daily Weather History Graph

Daily Weather History Graph

Search for Another Location

Airport or City:

Astronomy

Sep. 19, 2019 Rise Set
Actual Time 6:54 AM EDT 7:11 PM EDT
Civil Twilight 6:27 AM EDT 7:37 PM EDT
Nautical Twilight 5:56 AM EDT 8:08 PM EDT
Astronomical Twilight 5:24 AM EDT 8:40 PM EDT
Moon 10:22 PM EDT (9/19) 11:51 AM EDT (9/19)
Length of Visible Light 13h 10m
Length of Day
12h 17m
Waning Gibbous, 74% of the Moon is Illuminated
Sep 19
Waning Gibbous
Sep 21
Last Quarter
Sep 28
New
Oct 5
First Quarter
Oct 13
Full

Hourly Weather History & Observations

Time (EDT) Temp. Dew Point Humidity Pressure Visibility Wind Dir Wind Speed Gust Speed Precip Events Conditions
12:56 AM 66.0 °F 54.0 °F 65% 30.28 in 10.0 mi ESE 5.8 mph - N/A   Clear
1:56 AM 66.0 °F 55.0 °F 68% 30.29 in 10.0 mi East 9.2 mph - N/A   Clear
2:56 AM 64.9 °F 54.0 °F 68% 30.29 in 10.0 mi East 8.1 mph - N/A   Clear
3:56 AM 64.0 °F 54.0 °F 70% 30.30 in 10.0 mi East 6.9 mph - N/A   Partly Cloudy
4:56 AM 64.9 °F 53.1 °F 65% 30.31 in 10.0 mi ENE 9.2 mph - N/A   Partly Cloudy
5:56 AM 64.0 °F 54.0 °F 70% 30.32 in 10.0 mi ENE 11.5 mph - N/A   Partly Cloudy
6:56 AM 59.0 °F 54.0 °F 83% 30.33 in 10.0 mi NW 3.5 mph - N/A   Partly Cloudy
7:56 AM 64.0 °F 51.1 °F 63% 30.34 in 10.0 mi East 9.2 mph - N/A   Mostly Cloudy
8:56 AM 64.9 °F 50.0 °F 58% 30.35 in 10.0 mi East 9.2 mph - N/A   Scattered Clouds
9:56 AM 66.0 °F 48.0 °F 52% 30.37 in 10.0 mi East 5.8 mph - N/A   Scattered Clouds
10:56 AM 69.1 °F 48.0 °F 47% 30.37 in 10.0 mi ENE 8.1 mph - N/A   Mostly Cloudy
11:56 AM 70.0 °F 46.9 °F 44% 30.37 in 10.0 mi NNE 5.8 mph - N/A   Mostly Cloudy
12:56 PM 71.1 °F 44.1 °F 38% 30.35 in 10.0 mi NE 5.8 mph - N/A   Scattered Clouds
1:56 PM 73.0 °F 44.1 °F 35% 30.33 in 10.0 mi East 3.5 mph - N/A   Scattered Clouds
2:56 PM 72.0 °F 44.1 °F 37% 30.32 in 10.0 mi SSE 3.5 mph - N/A   Partly Cloudy
3:56 PM 73.0 °F 45.0 °F 37% 30.30 in 10.0 mi South 5.8 mph - N/A   Partly Cloudy
4:56 PM 73.0 °F 45.0 °F 37% 30.30 in 10.0 mi SSW 5.8 mph - N/A   Clear
5:56 PM 72.0 °F 42.1 °F 34% 30.30 in 10.0 mi SSW 5.8 mph - N/A   Clear
6:56 PM 71.1 °F 43.0 °F 36% 30.30 in 10.0 mi West 3.5 mph - N/A   Clear
7:56 PM 64.0 °F 52.0 °F 65% 30.30 in 10.0 mi NW 6.9 mph - N/A   Clear
8:56 PM 68.0 °F 54.0 °F 61% 30.31 in 10.0 mi SSE 8.1 mph - N/A   Clear
9:56 PM 62.1 °F 54.0 °F 75% 30.31 in 10.0 mi WNW 3.5 mph - N/A   Clear
10:56 PM 59.0 °F 54.0 °F 83% 30.31 in 10.0 mi NW 6.9 mph - N/A   Clear
11:56 PM 57.9 °F 53.1 °F 84% 30.31 in 10.0 mi WNW 6.9 mph - N/A   Clear